7 * 24
多渠道服务支持
STARLINK-33606 是 SpaceX Starlink 卫星互联网项目中的一颗低轨卫星,属于第三代星链卫星(v1.5 或 v2 版本)。该卫星由猎鹰 9 号火箭发射入轨,旨在为全球用户提供高速、低延迟的宽带互联网服务。它运行在约 550 公里的轨道高度,配备先进通信设备和激光链路,以提升网络性能和稳定性。作为 Starlink 系统的一部分,STARLINK-33606 有助于扩大覆盖范围,特别是在偏远和网络基础设施薄弱的地区。
美国
(US)
| 数据来源 | 国际轨道数据 |
| 星历时间: | 2025-11-07T02:48:41+0800 1天前 查看轨道信息 |
| 半长轴: | 6861.053km |
| 偏心率: | 0.0001736 |
| 轨道倾角: | 43.001° |
| 近地点辐角 | 278.279° |
| 升交点赤经 | 81.075° |
| 平近点角 | 81.786° |
| 近地点: | 481.726km |
| 远地点: | 484.11km |
| 周期: | 94.264分钟 |
| 每日圈数: | 15.276245 |